[[{"header":{"parameterUnit":"m.s-1","parameterCategory":1,"la1":30.2991,"la2":30.254,"lo1":-89.0895,"lo2":-89.0444,"dy":0.0017,"dx":0.0017,"nx":28,"ny":28,"refTime":"2024-10-20T21:00:00:Z","depth":0,"parameterNumber":2,"parameterNumberName":"U-component_of_WINDS"},"data":[0,0,0,0,0,0,0,0,0,0,0,0,0,0,0,0,0,0,0,0,0,0,0,0,0,0,0,0,0,0,0,0,0,0,0,0,0,0,0,0,0,0,0,0,0,0,0,0,0,0,0,0,0,0,0,0,0,0,-2.7027,-2.7028,0,-2.7091,-2.7092,-2.7092,-2.6994,-2.6991,-2.6987,-2.6984,-2.7052,-2.7057,-2.7062,0,0,0,0,0,0,0,0,0,0,0,0,0,-2.6821,-2.6825,-2.7027,-2.7028,-2.7028,-2.7091,-2.7092,-2.7092,-2.6995,-2.699,-2.6986,-2.6982,-2.7051,-2.7056,-2.7062,0,0,0,0,0,0,0,0,0,0,0,0,0,-2.6901,-2.6827,-2.7027,-2.6987,-2.6984,-2.7091,-2.7092,-2.7093,-2.6995,-2.699,-2.6985,-2.698,-2.7049,-2.7056,-2.7063,-2.7212,0,0,-2.7086,-2.7089,0,0,0,0,0,0,0,0,-2.6896,-2.6908,-2.6992,-2.699,-2.6987,-2.7029,-2.7044,-2.7133,-2.6997,-2.6991,-2.6984,-2.6978,-2.7049,-2.7056,-2.7079,-2.7216,-2.7218,-2.7087,-2.7091,-2.7095,-2.7097,0,0,0,0,0,0,0,-2.6891,-2.6905,-2.7052,-2.6993,-2.699,-2.6966,-2.6972,-2.706,-2.7048,-2.6991,-2.6984,-2.6993,-2.7046,-2.7072,-2.708,-2.722,-2.7087,-2.7093,-2.7098,-2.7101,-2.7481,-2.7486,0,0,0,0,0,0,-2.689,-2.6901,-2.705,-2.7054,-2.6928,-2.6974,-2.6981,-2.7021,-2.7047,-2.7046,-2.6997,-2.6988,-2.7062,-2.7072,-2.7082,-2.7259,-2.7095,-2.7102,-2.7106,-2.7475,-2.7482,-2.7488,0,0,0,0,0,0,-2.6886,-2.6904,-2.7047,-2.6976,-2.6992,-2.6983,-2.7029,-2.7025,-2.7051,-2.7051,-2.7049,-2.7026,-2.7058,-2.7072,-2.7181,-2.726,-2.7105,-2.7112,-2.7469,-2.7478,-2.7485,-2.7614,0,0,0,0,0,0,-2.688,-2.6903,-2.696,-2.6978,-2.6996,-2.7145,-2.7034,-2.703,-2.7063,-2.7052,-2.7078,-2.7077,-2.7055,-2.717,-2.7188,-2.7268,-2.7118,-2.7462,-2.7473,-2.7483,-2.7603,-2.7626,-2.7646,0,0,0,0,0,-2.6873,-2.6994,-2.6963,-2.6982,-2.7067,-2.715,-2.716,-2.7132,-2.707,-2.7127,-2.7127,-2.7076,-2.7248,-2.7182,-2.7201,-2.7285,-2.7457,-2.747,-2.7482,-2.7593,-2.7621,-2.7645,0,0,0,0,0,0,-2.6987,-2.6996,-2.6962,-2.7091,-2.712,-2.7133,-2.7204,-2.7163,-2.7211,-2.7199,-2.7162,-2.7168,-2.7286,-2.7295,-2.7222,-2.743,-2.7342,-2.7359,-2.742,-2.7447,-2.7468,-2.7464,-2.7124,0,0,0,0,0,-2.7027,-2.7093,-2.7097,-2.7211,-2.7227,-2.7214,-2.7249,-2.7224,-2.7253,-2.7265,-2.7273,-2.7304,-2.7365,-2.7406,-2.7462,-2.7602,-2.7607,-2.7669,-2.7691,-2.7708,-2.7724,-2.78,-2.7828,-2.753,-2.753,-2.7529,0,0,-2.7111,-2.7124,-2.7168,-2.7235,-2.7254,-2.7324,-2.7225,-2.7303,-2.7355,-2.7277,-2.7381,-2.7388,-2.7419,-2.7545,-2.7601,-2.7557,-2.7807,-2.7724,-2.7738,-2.7745,-2.7816,-2.7844,-2.7869,-2.7538,-2.7537,-2.7535,0,0,-2.73,-2.7315,-2.7413,-2.7434,-2.7464,-2.7454,-2.7477,-2.7495,-2.7497,-2.76,-2.7543,-2.7604,-2.7709,-2.7734,-2.7761,-2.7957,-2.7912,-2.7976,-2.8089,-2.8163,-2.8187,-2.8208,-2.8279,-2.8305,-2.7991,-2.7992,-2.7992,0,-2.7401,-2.7503,-2.7468,-2.755,-2.7582,-2.7513,-2.7611,-2.7633,-2.7681,-2.7705,-2.7654,-2.7784,-2.7801,-2.7932,-2.7979,-2.8003,-2.8029,-2.7974,-2.8186,-2.8207,-2.8225,-2.8293,-2.832,-2.7999,-2.7999,-2.7998,-2.7997,0,-2.7626,-2.7698,-2.7773,-2.782,-2.7859,-2.7949,-2.7928,-2.7972,-2.7943,-2.7938,-2.8044,-2.806,-2.8119,-2.8147,-2.8121,-2.8275,-2.8247,-2.8192,-2.8103,-2.8262,-2.8325,-2.8351,-2.801,-2.8008,-2.8005,-2.8003,0,0,-2.7892,-2.7916,-2.7944,-2.7965,-2.7992,-2.8047,-2.8134,-2.8189,-2.8229,-2.8263,-2.8335,-2.8425,-2.8374,-2.8404,-2.8379,-2.8444,-2.86,-2.8381,-2.8381,-2.8423,-2.8772,-2.8815,-2.8846,-2.8569,-2.8574,-2.8578,-2.877,0,-2.8081,-2.823,-2.82,-2.8347,-2.8413,-2.8347,-2.8423,-2.8448,-2.8445,-2.8501,-2.8497,-2.8562,-2.849,-2.8507,-2.8568,-2.8568,-2.867,-2.8554,-2.8638,-2.8641,-2.8635,-2.8878,-2.8924,-2.9105,-2.8794,-2.8798,-2.8801,0,-2.8323,-2.8366,-2.8519,-2.8535,-2.8561,-2.863,-2.8678,-2.8732,-2.8759,-2.8752,-2.8785,-2.8748,-2.8834,-2.8742,-2.8861,-2.8783,-2.8814,-2.882,-2.8826,-2.8835,-2.8733,-2.8896,-2.9162,-2.919,-2.884,-2.8837,-2.8834,0,-2.8504,-2.8599,-2.8702,-2.8721,-2.8743,-2.8792,-2.8804,-2.8825,-2.886,-2.8903,-2.8925,-2.8977,-2.9006,-2.9047,-2.9025,-2.896,-2.9149,-2.9054,-2.9147,-2.9148,-2.9192,-2.919,-2.9469,-2.9209,-2.9209,-2.9208,-2.9207,0,-2.872,-2.8817,-2.8784,-2.8848,-2.8954,-2.8918,-2.9024,-2.9028,-2.9047,-2.9111,-2.9057,-2.9118,-2.9084,-2.9142,-2.9125,-2.9227,-2.924,-2.9238,-2.9233,-2.9244,-2.9245,-2.9267,-2.9255,-2.9215,-2.9214,-2.9212,-2.9211,0,-2.8941,-2.8923,-2.9032,-2.9042,-2.9047,-2.9125,-2.9133,-2.9194,-2.9185,-2.9267,-2.9284,-2.9272,-2.9338,-2.9318,-2.939,-2.9378,-2.9508,-2.9486,-2.9499,-2.9495,-2.9589,-2.9581,-2.9894,-2.9934,-2.9646,-2.9649,-2.9651,0,-2.9082,-2.9154,-2.9172,-2.921,-2.9225,-2.9288,-2.9323,-2.9289,-2.9329,-2.9364,-2.942,-2.9481,-2.9529,-2.9637,-2.9635,-2.969,-2.967,-2.9775,-2.9678,-2.9687,-2.9674,-2.9671,-2.9678,-2.9796,-2.9799,-2.9802,-2.9804,0,-2.9334,-2.9321,-2.9373,-2.9423,-2.9466,-2.9503,-2.9536,-2.9571,-2.9539,-2.9586,-2.9652,-2.9689,-2.9761,-2.9823,-2.9873,-2.9884,-2.9841,-2.9834,-2.9859,-2.9873,-2.9879,-2.9879,-2.9555,-2.9828,-2.9826,-2.9824,-2.9823,-2.9822,-2.952,-2.9582,-2.9603,-2.9664,-2.9684,-2.9716,-2.9772,-2.977,-2.9825,-2.9881,-2.9857,-2.9934,-2.9958,-3.002,-3.0038,-3.0098,-3.0058,-3.0093,-3.0102,-3.0112,-3.0125,-2.9867,-3.0107,-3.0106,-3.0105,-3.0105,-3.0104,0,-2.9771,-2.9781,-2.9837,-2.9883,-2.9931,-2.9882,-2.9915,-2.9959,-3.0027,-3.0052,-3.01,-3.0176,-3.0235,-3.0237,-3.0292,-3.034,-3.0321,-3.0356,-3.0353,-3.0357,-3.0157,-3.0131,-3.037,-3.037,-3.037,-3.037,-3.037,-3.037,-2.9908,-3.0009,-2.9999,-3.011,-3.0119,-3.0193,-3.0216,-3.0245,-3.0265,-3.0353,-3.0402,-3.0401,-3.0418,-3.0473,-3.0526,-3.0524,-3.0548,-3.0592,-3.0583,-3.0397,-3.0371,-3.0346,-3.0321,-3.0597,-3.0597,-3.0778,-3.078,-3.0781]},{"header":{"parameterUnit":"m.s-1","parameterCategory":1,"la1":30.2991,"la2":30.254,"lo1":-89.0895,"lo2":-89.0444,"dy":0.0017,"dx":0.0017,"nx":28,"ny":28,"refTime":"2024-10-20T21:00:00:Z","depth":0,"parameterNumber":3,"parameterNumberName":"V-component_of_WINDS"},"data":[0,0,0,0,0,0,0,0,0,0,0,0,0,0,0,0,0,0,0,0,0,0,0,0,0,0,0,0,0,0,0,0,0,0,0,0,0,0,0,0,0,0,0,0,0,0,0,0,0,0,0,0,0,0,0,0,0,0,-3.1616,-3.1617,0,-3.1641,-3.1642,-3.1642,-3.1612,-3.161,-3.1609,-3.1608,-3.1632,-3.1633,-3.1635,0,0,0,0,0,0,0,0,0,0,0,0,0,-3.154,-3.1542,-3.1616,-3.1617,-3.1617,-3.1641,-3.1642,-3.1642,-3.1612,-3.161,-3.1609,-3.1608,-3.1631,-3.1633,-3.1635,0,0,0,0,0,0,0,0,0,0,0,0,0,-3.157,-3.1542,-3.1616,-3.1605,-3.1604,-3.1641,-3.1642,-3.1642,-3.1612,-3.161,-3.1609,-3.1607,-3.163,-3.1633,-3.1635,-3.1684,0,0,-3.1643,-3.1644,0,0,0,0,0,0,0,0,-3.1568,-3.1573,-3.1606,-3.1606,-3.1605,-3.1622,-3.1623,-3.1656,-3.1612,-3.1609,-3.1608,-3.1606,-3.1629,-3.1632,-3.164,-3.1685,-3.1686,-3.1643,-3.1645,-3.1646,-3.1646,0,0,0,0,0,0,0,-3.1566,-3.1571,-3.1626,-3.1607,-3.1606,-3.1598,-3.16,-3.1629,-3.1628,-3.1609,-3.1607,-3.1611,-3.1629,-3.1638,-3.164,-3.1686,-3.1643,-3.1645,-3.1647,-3.1648,-3.177,-3.1772,0,0,0,0,0,0,-3.1566,-3.157,-3.1625,-3.1627,-3.1582,-3.16,-3.1603,-3.1618,-3.1628,-3.1628,-3.1612,-3.1609,-3.1634,-3.1638,-3.1641,-3.1697,-3.1646,-3.1648,-3.1649,-3.1768,-3.177,-3.1772,0,0,0,0,0,0,-3.1564,-3.1571,-3.1624,-3.1598,-3.1604,-3.1603,-3.162,-3.1619,-3.1628,-3.163,-3.1629,-3.1622,-3.1633,-3.1638,-3.1673,-3.1697,-3.1649,-3.1651,-3.1766,-3.1769,-3.1771,-3.181,0,0,0,0,0,0,-3.1562,-3.1571,-3.159,-3.1599,-3.1606,-3.1657,-3.1622,-3.1621,-3.1633,-3.1629,-3.1639,-3.1639,-3.1632,-3.167,-3.1676,-3.17,-3.1653,-3.1764,-3.1767,-3.177,-3.1807,-3.1814,-3.182,0,0,0,0,0,-3.156,-3.16,-3.1591,-3.1598,-3.163,-3.1658,-3.1662,-3.1655,-3.1635,-3.1654,-3.1654,-3.1638,-3.1694,-3.1673,-3.168,-3.1706,-3.1762,-3.1766,-3.177,-3.1804,-3.1812,-3.182,0,0,0,0,0,0,-3.1594,-3.1601,-3.1591,-3.1636,-3.1647,-3.1653,-3.1677,-3.1665,-3.1681,-3.1677,-3.1666,-3.1668,-3.1706,-3.1709,-3.1686,-3.1752,-3.1725,-3.173,-3.1748,-3.1756,-3.1763,-3.176,-3.1655,0,0,0,0,0,-3.1607,-3.163,-3.1635,-3.1674,-3.168,-3.1677,-3.169,-3.1683,-3.1693,-3.1698,-3.1701,-3.1711,-3.1731,-3.1744,-3.1762,-3.1808,-3.1808,-3.1828,-3.1835,-3.184,-3.1845,-3.1867,-3.1875,-3.1785,-3.1785,-3.1785,0,0,-3.1633,-3.164,-3.1656,-3.1681,-3.1688,-3.1712,-3.1682,-3.1708,-3.1725,-3.1702,-3.1735,-3.1738,-3.1748,-3.1788,-3.1806,-3.1792,-3.187,-3.1845,-3.185,-3.1851,-3.1871,-3.188,-3.1887,-3.1788,-3.1787,-3.1787,0,0,-3.1693,-3.1702,-3.1734,-3.1742,-3.1754,-3.1752,-3.176,-3.1768,-3.1769,-3.1803,-3.1785,-3.1805,-3.1839,-3.1847,-3.1856,-3.1917,-3.1902,-3.1924,-3.1958,-3.1979,-3.1986,-3.1992,-3.2013,-3.202,-3.1928,-3.1928,-3.1928,0,-3.1725,-3.176,-3.1752,-3.1779,-3.179,-3.1771,-3.1802,-3.181,-3.1828,-3.1835,-3.182,-3.1862,-3.1868,-3.1908,-3.1923,-3.1931,-3.1938,-3.1922,-3.1986,-3.1992,-3.1998,-3.2017,-3.2025,-3.1931,-3.193,-3.193,-3.193,0,-3.1797,-3.1821,-3.1846,-3.1863,-3.1876,-3.1906,-3.1901,-3.1916,-3.1908,-3.1907,-3.194,-3.1946,-3.1965,-3.1974,-3.1967,-3.2013,-3.2004,-3.1988,-3.196,-3.2009,-3.2026,-3.2034,-3.1934,-3.1933,-3.1933,-3.1932,0,0,-3.1879,-3.189,-3.1899,-3.1906,-3.1918,-3.1936,-3.1964,-3.1982,-3.1994,-3.2006,-3.2028,-3.2057,-3.2042,-3.2051,-3.2045,-3.2064,-3.211,-3.2045,-3.2045,-3.2055,-3.2159,-3.217,-3.2179,-3.2101,-3.2102,-3.2103,-3.2158,0,-3.1937,-3.1986,-3.1979,-3.2025,-3.2046,-3.2028,-3.2052,-3.2061,-3.2061,-3.2078,-3.2078,-3.2098,-3.2077,-3.2082,-3.2101,-3.21,-3.213,-3.2097,-3.2119,-3.212,-3.2115,-3.2188,-3.22,-3.2251,-3.2165,-3.2166,-3.2167,0,-3.2012,-3.2027,-3.2075,-3.2082,-3.209,-3.2112,-3.2127,-3.2145,-3.2154,-3.2152,-3.2163,-3.2152,-3.2178,-3.2151,-3.2186,-3.2163,-3.2172,-3.2174,-3.2175,-3.2176,-3.2145,-3.2189,-3.2268,-3.2275,-3.2178,-3.2177,-3.2176,0,-3.2064,-3.2097,-3.2129,-3.2136,-3.2145,-3.216,-3.2164,-3.2172,-3.2183,-3.2196,-3.2203,-3.2219,-3.2227,-3.224,-3.2233,-3.2214,-3.2269,-3.2242,-3.2267,-3.2267,-3.2278,-3.2277,-3.2357,-3.2287,-3.2286,-3.2286,-3.2286,0,-3.2129,-3.2159,-3.2152,-3.2172,-3.2204,-3.2196,-3.2228,-3.223,-3.2237,-3.2255,-3.2241,-3.2259,-3.225,-3.2267,-3.2262,-3.229,-3.2295,-3.2293,-3.2291,-3.2293,-3.2293,-3.2298,-3.2293,-3.2288,-3.2288,-3.2288,-3.2287,0,-3.2193,-3.219,-3.2224,-3.2229,-3.2231,-3.2254,-3.2259,-3.2276,-3.2275,-3.2299,-3.2304,-3.2302,-3.2321,-3.2316,-3.2337,-3.2333,-3.2369,-3.2364,-3.2366,-3.2364,-3.2388,-3.2385,-3.2473,-3.2483,-3.2408,-3.2409,-3.2409,0,-3.2233,-3.2256,-3.2264,-3.2275,-3.2281,-3.23,-3.2311,-3.2303,-3.2315,-3.2326,-3.2342,-3.236,-3.2374,-3.2405,-3.2405,-3.242,-3.2413,-3.2443,-3.2416,-3.2417,-3.2412,-3.241,-3.2411,-3.2448,-3.2449,-3.245,-3.245,0,-3.2305,-3.2302,-3.2319,-3.2335,-3.2348,-3.236,-3.2371,-3.2381,-3.2374,-3.2387,-3.2407,-3.2417,-3.2438,-3.2456,-3.247,-3.2473,-3.246,-3.2459,-3.2465,-3.2467,-3.2467,-3.2465,-3.2379,-3.2457,-3.2456,-3.2456,-3.2455,-3.2455,-3.2357,-3.2375,-3.2383,-3.2402,-3.2409,-3.2419,-3.2435,-3.2436,-3.2452,-3.2468,-3.2463,-3.2484,-3.2492,-3.2509,-3.2514,-3.253,-3.2519,-3.2528,-3.253,-3.2532,-3.2535,-3.2466,-3.2533,-3.2533,-3.2533,-3.2533,-3.2532,0,-3.2427,-3.2431,-3.2448,-3.2462,-3.2477,-3.2464,-3.2475,-3.2487,-3.2506,-3.2514,-3.2528,-3.2549,-3.2566,-3.2567,-3.2582,-3.2594,-3.2589,-3.2598,-3.2596,-3.2597,-3.2545,-3.2537,-3.2603,-3.2603,-3.2603,-3.2603,-3.2603,-3.2603,-3.2464,-3.2494,-3.2492,-3.2524,-3.2527,-3.2549,-3.2555,-3.2564,-3.257,-3.2595,-3.2608,-3.2609,-3.2614,-3.2629,-3.2643,-3.2642,-3.2648,-3.266,-3.2657,-3.2608,-3.2601,-3.2594,-3.2587,-3.2661,-3.2661,-3.2707,-3.2707,-3.2708]}]]